Location: Boiro
(42.6475°N, 8.8834°W)
Time: 02:35:43
(UTC+01:00)

Explorer 7 - Pass Details

Date: 06 December 2021
Orbit: 483 x 674 km, 50.3° (Epoch: 23 January)

Event Time Altitude Azimuth Distance (km) Brightness Sun altitude
Rises 13:02:03 0° 294° (WNW) 2,619 10.0 24.6°
Reaches altitude 10° 13:04:30 10° 282° (WNW) 1,706 9.2 24.6°
Maximum altitude 13:07:46 27° 223° (SW) 975 8.9 24.7°
Drops below altitude 10° 13:10:57 10° 165° (SSE) 1,657 11.0 24.7°
Sets 13:13:18 0° 152° (SSE) 2,529 11.3 24.7°
